EW2137 Weather Reports


Display with metric or nautical units.
time (UTC)temp
F
wind
direction
speed
MPH
gust
MPH
rain 1hr
in
rain 24hr
in
rain mn
in
humidity
%
barometer
mb
20260903181553 58 208 4.0 8.0 0.00 0.15 0.00 59 1008.9
20260903180051 58 226 5.0 9.0 0.00 0.15 0.00 62 1008.7
20260903174548 58 219 6.0 10.0 0.00 0.15 0.00 59 1008.6
20260903173046 57 156 4.0 7.0 0.00 0.15 0.00 67 1008.6
20260903171544 57 190 6.0 9.0 0.00 0.15 0.00 67 1008.6
20260903170052 56 172 6.0 9.0 0.00 0.15 0.00 69 1008.7
20260903164542 56 192 5.0 8.0 0.00 0.15 0.00 68 1008.9
20260903163038 55 245 0.0 4.0 0.00 0.15 0.00 70 1008.9
20260903161537 55 194 2.0 3.0 0.00 0.15 0.00 69 1008.8
20260903160036 54 200 2.0 6.0 0.00 0.15 0.00 74 1008.8
20260903154542 53 190 5.0 7.0 0.00 0.15 0.00 72 1009.0
20260903153029 52 172 8.0 11.0 0.00 0.15 0.00 78 1009.2
20260903151527 51 152 6.0 10.0 0.00 0.15 0.00 78 1009.0
20260903150027 52 200 2.0 4.0 0.00 0.15 0.00 80 1008.9
20260903144526 50 236 3.0 6.0 0.00 0.15 0.00 80 1009.0
20260903143027 48 208 6.0 7.0 0.00 0.15 0.00 83 1009.0
20260903141535 48 175 7.0 9.0 0.00 0.15 0.00 80 1008.8
20260903140023 47 221 3.0 7.0 0.00 0.15 0.00 81 1008.8
20260903134523 47 195 3.0 9.0 0.00 0.15 0.00 79 1008.9
20260903133023 44 168 6.0 10.0 0.00 0.15 0.00 86 1008.7
20260903131518 45 181 4.0 6.0 0.00 0.15 0.00 84 1008.5
20260903130018 46 208 4.0 7.0 0.00 0.15 0.00 83 1008.5
20260903124518 44 213 6.0 7.0 0.00 0.15 0.00 85 1008.4
20260903123016 45 208 6.0 7.0 0.00 0.15 0.00 84 1008.4
20260903121515 47 229 4.0 8.0 0.00 0.15 0.00 80 1008.2
20260903120015 46 220 8.0 9.0 0.00 0.15 0.00 82 1008.3
20260903114514 48 192 9.0 12.0 0.00 0.15 0.00 76 1008.3
20260903113011 45 169 2.0 8.0 0.00 0.15 0.00 83 1008.3
20260903111508 45 206 5.0 7.0 0.00 0.15 0.00 82 1008.1
20260903110008 46 214 5.0 7.0 0.00 0.15 0.00 81 1008.1
20260903104504 47 220 5.0 7.0 0.00 0.15 0.00 82 1007.7
20260903103002 47 212 6.0 8.0 0.00 0.15 0.00 84 1008.0
20260903101502 48 223 4.0 8.0 0.00 0.15 0.00 84 1008.0
20260903100100 48 216 7.0 8.0 0.00 0.15 0.00 84 1007.8
20260903094600 47 219 6.0 7.0 0.00 0.15 0.00 88 1007.6
20260903093104 47 209 6.0 8.0 0.00 0.15 0.00 89 1007.7
20260903091554 48 212 5.0 7.0 0.00 0.15 0.00 87 1007.6
20260903090051 49 211 3.0 6.0 0.00 0.15 0.00 87 1007.6
20260903084550 50 215 6.0 9.0 0.00 0.15 0.00 87 1007.4
20260903083050 50 192 6.0 7.0 0.00 0.15 0.00 89 1007.4
20260903081558 51 211 6.0 8.0 0.00 0.15 0.00 89 1007.5
20260903080041 51 217 5.0 6.0 0.00 0.15 0.00 89 1007.2
20260903074542 52 242 5.0 10.0 0.00 0.15 0.00 88 1007.1
20260903073108 52 221 5.0 8.0 0.00 0.15 0.00 89 1007.0
20260903071536 52 220 6.0 9.0 0.00 0.15 0.00 90 1006.7
20260903070033 52 221 7.0 9.0 0.00 0.15 0.00 90 1006.6
20260903064535 53 216 8.0 11.0 0.00 0.15 0.15 89 1006.5
20260903063039 53 232 8.0 11.0 0.00 0.15 0.15 88 1006.3
20260903061533 54 226 8.0 11.0 0.00 0.15 0.15 87 1006.1
20260903060031 53 220 8.0 12.0 0.00 0.15 0.15 89 1006.5
20260903054530 54 227 8.0 12.0 0.00 0.15 0.15 90 1006.5
20260903053035 54 193 5.0 7.0 0.00 0.15 0.15 91 1006.6
20260903051530 54 219 4.0 7.0 0.00 0.15 0.15 90 1006.4
20260903050040 54 224 5.0 10.0 0.00 0.15 0.15 91 1006.4
20260903044529 53 231 6.0 9.0 0.00 0.15 0.15 91 1006.5
20260903043028 53 222 5.0 11.0 0.00 0.15 0.15 89 1006.3
20260903041527 53 233 7.0 13.0 0.00 0.15 0.15 86 1006.2
20260903040027 55 248 12.0 18.0 0.01 0.15 0.15 86 1006.1
20260903034533 56 221 19.0 24.0 0.01 0.15 0.15 80 1005.8
20260903033026 56 176 13.0 17.0 0.01 0.15 0.15 79 1005.0
20260903031533 57 167 15.0 21.0 0.01 0.15 0.15 79 1005.0
20260903030025 57 171 16.0 22.0 0.00 0.14 0.14 78 1004.8
20260903024524 58 166 11.0 18.0 0.01 0.14 0.14 80 1004.9
20260903023030 58 167 10.0 13.0 0.02 0.14 0.14 81 1004.8
20260903021524 58 171 7.0 13.0 0.02 0.14 0.14 82 1004.8
20260903020052 58 167 9.0 14.0 0.03 0.14 0.14 81 1005.0
20260903014522 58 169 6.0 10.0 0.02 0.13 0.13 82 1005.0
20260903013022 59 160 8.0 12.0 0.02 0.12 0.12 80 1005.1
20260903011522 59 198 10.0 14.0 0.02 0.12 0.12 78 1005.0
20260903010022 59 180 4.0 8.0 0.01 0.11 0.11 80 1005.0
20260903004521 59 209 7.0 9.0 0.01 0.11 0.11 78 1005.0
20260903003020 59 178 5.0 7.0 0.01 0.10 0.10 83 1005.0
20260903001522 58 69 0.0 3.0 0.01 0.10 0.10 87 1005.0
20260903000020 57 72 2.0 4.0 0.03 0.10 0.10 87 1004.9
20260902234519 57 41 4.0 8.0 0.04 0.10 0.10 86 1004.9
20260902233018 58 119 4.0 5.0 0.03 0.09 0.09 85 1005.0
20260902231517 60 26 4.0 6.0 0.04 0.09 0.09 82 1004.9
20260902230017 60 148 4.0 7.0 0.02 0.07 0.07 78 1005.0
20260902224517 59 157 3.0 8.0 0.03 0.06 0.06 79 1004.9
20260902223015 60 171 8.0 12.0 0.04 0.06 0.06 74 1004.8
20260902221532 60 180 7.0 18.0 0.04 0.05 0.05 73 1005.0
20260902220015 59 263 1.0 5.0 0.05 0.05 0.05 79 1005.2
20260902214513 60 211 6.0 9.0 0.03 0.03 0.03 73 1005.2
20260902213013 60 209 7.0 11.0 0.02 0.02 0.02 70 1005.6
20260902211513 61 186 9.0 13.0 0.01 0.01 0.01 63 1005.3
20260902210013 62 188 7.0 10.0 0.00 0.00 0.00 64 1005.1
20260902204514 61 200 7.0 19.0 0.00 0.00 0.00 66 1005.1
20260902203013 63 205 16.0 23.0 0.00 0.00 0.00 60 1005.1
20260902201511 65 218 15.0 25.0 0.00 0.00 0.00 58 1004.7
20260902200010 65 229 16.0 25.0 0.00 0.00 0.00 56 1004.3
20260902194521 67 340 4.0 8.0 0.00 0.00 0.00 49 1003.7
20260902193009 68 355 3.0 7.0 0.00 0.00 0.00 48 1003.8
20260902191514 67 81 4.0 8.0 0.00 0.00 0.00 49 1004.0
20260902190005 67 128 3.0 9.0 0.00 0.00 0.00 49 1004.2
20260902184502 66 61 5.0 8.0 0.00 0.00 0.00 51 1004.4
20260902183002 66 29 4.0 9.0 0.00 0.00 0.00 51 1004.6